Theta_e
303 303 303 303 303 303 304 304 304 303 303 295 293 294 289 288 284 293 297 298 294 285 278 282 282 280 284 289 288 289 287 285 287 286 288 286 289 287 286 286 285 287 286 288 287 281 280 281 280 281 283 284 286 285 288 289 289 290 284 286 287 298 283 280 279 282 283 286 287 288 290 290 286 286 286 284 283 283 282 276 278 278 279 280 278 277 278
303 303 303 303 304 304 303 304 304 304 302 297 295 289 287 288 287 288 296 297 290 282 276 276 275 283 286 287 286 289 287 287 286 286 289 287 287 286 287 288 289 286 291 289 286 286 278 283 283 282 283 284 288 286 288 290 288 289 285 285 293 281 280 278 277 278 280 282 285 286 289 289 284 283 284 286 285 283 282 281 280 280 282 281 279 276 279
303 303 303 304 303 303 304 304 304 304 303 302 296 288 289 287 288 290 289 295 290 282 284 283 280 284 284 285 284 287 288 289 289 288 286 290 288 287 285 287 288 286 291 291 290 291 285 281 284 284 285 286 289 286 288 289 288 290 292 301 292 284 280 280 274 273 272 273 276 276 279 283 284 285 285 285 287 284 284 280 280 279 280 281 280 277 285
303 303 303 303 303 303 304 304 303 303 303 303 297 291 287 283 278 282 284 288 289 289 293 289 285 284 284 283 286 287 285 289 292 291 289 290 289 288 288 289 289 287 290 286 287 287 289 284 282 284 287 289 291 286 288 289 288 298 304 300 291 283 285 283 279 275 274 278 280 282 283 282 282 284 285 285 286 287 285 281 277 279 278 281 280 286 293
303 303 303 303 303 303 303 303 303 303 303 303 298 294 288 285 278 281 279 286 287 286 290 287 287 283 287 281 286 284 286 288 290 294 287 292 289 288 287 287 287 288 288 285 285 288 288 290 283 283 287 289 289 293 287 289 293 304 302 298 289 284 283 285 284 284 283 283 282 284 287 285 283 284 284 284 285 285 284 281 279 281 283 278 280 291 295
303 303 303 303 303 303 303 303 303 303 303 304 298 287 289 280 283 286 289 283 280 282 284 287 286 287 287 283 286 284 285 286 284 290 292 292 292 285 289 290 291 291 289 287 283 286 285 286 283 288 289 290 289 290 292 287 295 304 295 296 289 284 280 285 287 288 290 290 289 291 291 289 288 285 285 285 284 285 285 284 281 285 281 280 284 293 293
303 303 303 303 303 303 303 304 303 303 302 303 296 287 290 290 288 286 293 284 288 287 288 289 287 285 287 285 286 284 284 284 288 288 288 290 290 289 282 287 292 293 292 287 284 286 280 283 287 286 287 288 285 286 287 291 292 295 291 290 288 287 281 286 289 287 288 289 288 290 292 289 289 289 289 288 286 286 286 283 283 285 282 281 290 294 294
303 303 303 303 303 303 303 303 303 302 301 302 296 293 288 287 287 285 292 290 288 289 289 288 287 285 289 284 286 286 286 286 291 293 290 284 288 293 287 288 292 294 292 285 285 288 288 287 284 289 287 285 286 285 285 287 291 290 289 289 287 287 282 292 288 285 287 288 289 290 291 289 288 289 290 289 287 287 285 285 287 289 290 288 293 295 293
303 303 303 303 303 303 303 304 303 302 301 296 294 294 297 294 297 295 289 285 286 287 287 286 286 285 287 284 287 288 290 289 292 291 295 290 288 290 288 290 290 293 293 291 290 292 291 290 291 291 290 286 291 287 289 291 287 288 288 288 290 289 284 287 286 283 284 288 285 286 287 290 288 287 289 289 289 288 288 286 288 287 289 292 293 290 290
302 303 303 303 303 303 303 303 303 302 301 294 294 291 298 297 300 299 293 285 290 286 288 288 287 284 288 290 290 289 290 292 292 283 290 294 293 292 291 290 289 289 289 289 292 295 294 294 295 295 295 295 294 294 294 290 287 287 287 287 285 285 286 284 283 283 281 286 284 284 282 284 286 285 288 289 290 291 291 291 292 292 296 291 285 287 291
303 303 303 303 303 303 303 303 303 303 299 294 292 291 293 292 291 293 294 285 285 287 286 288 287 290 291 292 291 293 291 291 291 285 285 292 293 294 292 291 287 285 287 294 299 301 300 299 298 297 296 296 295 295 295 294 291 289 289 285 284 288 289 280 283 280 280 285 284 283 280 274 276 284 288 292 292 290 291 290 291 293 294 291 291 291 300
303 303 303 302 302 303 303 303 303 303 301 297 297 293 296 297 294 294 288 283 285 288 287 286 288 289 290 292 292 290 289 289 290 292 288 288 291 292 291 289 286 284 294 298 300 300 300 300 299 298 297 296 296 295 295 294 293 292 290 288 285 288 285 281 282 281 281 283 284 279 274 273 283 285 287 292 294 293 294 294 294 294 291 290 294 299 301
303 303 303 303 302 303 303 303 303 302 303 298 296 292 296 298 293 292 292 287 284 286 285 287 290 290 292 293 291 290 290 291 291 291 291 290 289 290 292 291 289 294 299 298 296 294 291 288 289 289 291 292 293 294 293 292 292 293 291 290 291 284 286 281 282 279 280 282 278 273 271 280 287 292 294 294 295 293 293 291 293 292 293 291 294 299 302
303 303 303 303 302 303 302 303 302 302 302 301 295 294 296 296 293 293 292 286 286 289 289 288 290 291 292 292 292 292 293 292 292 292 289 291 290 290 292 294 296 298 298 295 291 290 288 282 281 281 285 287 288 288 290 291 291 291 290 289 292 291 287 287 282 283 280 277 277 278 281 284 288 290 294 293 291 291 286 284 287 291 291 294 298 301 302
303 303 303 303 303 302 302 302 302 302 302 303 298 296 296 296 296 294 295 293 286 288 290 285 289 291 292 293 293 291 289 291 291 288 292 294 292 293 294 297 298 298 296 295 287 285 285 283 283 281 282 282 280 282 289 287 290 291 290 289 291 291 290 287 287 280 279 279 277 278 278 276 280 287 289 292 291 291 287 287 285 289 292 296 302 301 301
302 303 303 303 302 302 302 302 302 302 302 303 298 295 296 297 297 297 295 292 289 284 289 294 294 293 292 292 294 292 290 288 291 291 289 289 292 294 296 296 296 298 295 289 285 282 283 285 281 280 278 280 285 284 282 285 285 292 291 291 291 290 291 289 289 281 279 279 278 272 276 276 279 287 289 293 292 292 289 288 286 287 297 298 302 301 301
302 303 303 303 302 302 302 302 302 302 302 302 297 295 292 295 295 295 293 294 293 286 294 296 296 296 293 291 292 290 292 289 293 286 284 287 292 294 296 297 296 295 290 286 283 284 284 281 280 280 283 285 283 283 285 283 284 285 290 290 290 288 282 284 283 280 276 276 277 277 273 279 288 285 289 292 292 291 289 279 278 288 298 301 302 301 301
302 303 303 303 303 302 302 302 302 302 302 303 298 293 292 295 297 297 295 294 288 288 295 299 295 292 290 291 290 294 297 295 295 294 288 288 291 293 293 295 291 295 295 288 283 281 279 276 280 278 280 286 287 287 281 283 282 281 285 283 283 283 282 283 283 280 276 277 274 274 279 284 285 288 291 292 292 288 278 278 282 288 298 301 302 302 302
302 302 303 303 303 303 303 302 302 302 302 303 300 295 291 293 297 298 296 294 293 286 295 301 300 296 298 301 296 297 298 296 295 288 285 285 290 294 295 295 295 287 289 284 281 280 280 282 283 281 281 283 286 283 286 283 282 285 284 283 284 280 280 280 280 280 280 274 278 279 275 282 288 288 293 294 291 281 282 287 289 294 299 300 302 301 302
301 302 302 303 303 303 303 302 302 302 303 303 300 292 295 297 298 299 296 291 293 291 294 295 298 295 301 297 295 293 295 295 296 291 287 285 293 295 285 285 289 289 286 283 282 283 281 282 282 282 279 280 285 287 282 282 285 284 284 284 281 284 282 280 281 279 277 269 274 275 277 283 294 294 292 293 285 284 285 289 294 296 300 301 300 302 302
301 301 301 302 302 303 303 302 302 302 303 303 301 295 294 296 299 301 300 297 292 288 290 298 300 299 299 298 299 298 296 293 294 292 294 294 296 292 285 284 288 289 285 285 285 283 280 282 282 282 285 285 286 287 283 279 286 288 288 284 284 285 283 277 276 281 279 272 276 277 281 285 291 294 289 291 288 292 289 293 294 297 299 300 300 300 302
300 300 301 301 301 302 302 303 303 303 303 303 302 295 293 296 298 300 301 299 292 289 292 296 299 298 300 301 301 301 300 300 301 301 295 290 295 294 292 293 292 292 292 287 285 285 285 281 283 281 282 284 283 281 283 279 280 284 290 286 283 286 284 281 283 281 279 278 279 281 286 288 289 293 293 290 290 291 291 293 296 298 298 298 301 300 299
300 300 300 300 301 302 302 302 302 303 303 304 302 297 294 296 297 300 299 294 295 295 297 297 298 299 300 301 303 303 303 304 303 302 301 295 288 292 293 292 292 297 296 291 289 286 286 283 282 282 283 282 284 282 283 281 278 284 285 289 286 289 288 287 287 286 290 291 291 290 288 288 289 290 290 290 292 293 293 296 298 297 298 301 300 298 298
300 300 300 300 301 302 302 302 302 303 303 303 303 298 297 298 299 298 296 295 291 288 292 294 292 288 295 297 302 305 303 303 303 303 305 302 290 288 291 295 296 295 293 293 290 291 284 282 285 283 282 284 283 280 281 280 279 284 284 285 284 290 289 286 285 290 287 283 287 288 289 289 290 289 292 292 291 291 292 294 296 297 298 298 298 299 299
299 300 300 300 301 301 302 302 303 302 303 303 303 302 301 298 298 298 294 288 286 287 286 287 288 295 298 301 303 302 303 305 305 304 303 303 299 294 291 295 298 296 294 294 289 286 282 284 286 282 283 287 288 283 283 282 284 285 283 283 284 287 290 286 286 286 282 282 289 291 289 288 289 289 289 292 291 292 293 292 293 295 297 299 299 299 298
299 299 300 300 301 301 302 302 302 303 303 304 304 300 298 297 300 300 299 296 295 293 287 285 289 298 300 301 300 301 302 302 303 303 302 302 303 302 299 299 298 300 295 291 290 287 283 283 281 280 283 286 288 282 283 286 285 285 283 282 286 287 290 283 287 287 291 293 292 290 289 290 289 290 291 291 291 293 293 294 295 297 297 297 298 300 299
299 299 300 300 301 301 302 302 302 303 303 304 303 302 301 300 301 299 295 295 292 285 285 285 289 295 299 298 301 302 302 300 300 301 301 302 302 302 300 298 296 295 292 291 287 283 282 282 282 285 284 286 285 286 286 286 284 283 284 287 288 288 286 287 288 285 285 286 288 291 287 286 289 289 291 291 293 293 293 294 296 296 296 297 297 297 298
299 299 300 300 301 301 302 302 302 303 303 304 304 302 303 300 301 301 300 298 293 287 286 286 289 295 299 294 299 300 301 300 300 300 300 300 301 300 298 298 296 294 288 289 291 285 281 283 287 285 283 286 285 286 285 285 283 282 283 285 288 287 286 286 284 284 283 288 291 290 288 288 287 288 291 292 293 293 295 295 295 296 297 297 297 295 296
299 299 300 300 301 301 302 302 302 302 303 303 302 300 300 301 302 302 301 300 298 295 291 291 295 291 286 294 299 300 298 298 299 298 298 298 298 298 297 296 294 291 288 286 284 283 282 286 285 288 289 289 287 284 283 282 281 283 283 288 288 288 288 288 287 287 289 292 291 291 289 288 290 290 290 291 292 293 293 294 295 296 297 297 297 296 296
299 299 299 300 301 301 302 302 302 302 303 302 300 296 290 295 300 301 302 301 298 299 290 288 286 285 292 296 296 298 296 295 297 297 296 296 296 295 296 294 292 291 291 288 286 284 286 286 284 286 291 291 288 284 283 284 283 285 288 289 289 289 289 291 291 292 290 292 291 290 290 290 290 290 290 291 293 294 293 292 293 296 297 299 297 296 297
299 299 300 300 301 301 302 302 302 302 302 299 295 285 286 289 296 301 302 301 300 298 289 290 288 291 289 293 294 294 294 295 296 294 294 293 293 293 295 293 292 291 286 286 286 286 284 285 282 287 287 291 285 282 284 284 283 284 287 288 289 289 289 290 289 291 292 292 293 293 292 291 291 292 292 291 292 293 293 292 295 297 298 298 298 297 297
299 299 300 300 301 301 301 302 302 302 302 298 295 290 292 295 299 301 303 301 300 297 291 288 286 285 283 289 293 293 294 295 295 292 290 293 294 291 291 291 289 289 289 284 285 284 284 282 282 285 285 289 285 279 281 282 282 282 287 288 289 289 290 291 292 292 293 294 294 293 292 292 289 288 289 291 291 293 294 293 294 295 296 297 297 297 297
299 299 300 300 301 301 301 302 302 302 299 302 304 304 304 303 303 303 303 300 299 294 293 288 286 284 280 286 290 290 294 292 291 288 290 291 293 290 289 288 287 288 295 286 283 283 284 280 279 281 286 283 279 279 284 283 285 286 287 288 288 290 291 291 292 291 291 291 293 291 290 289 288 289 290 292 293 293 294 294 294 295 295 295 295 296 296
299 299 300 300 301 301 301 302 303 303 302 300 297 297 300 304 304 303 301 299 292 289 286 288 286 284 285 287 287 289 292 289 287 286 286 291 289 288 286 286 287 285 289 286 283 283 284 283 282 280 280 280 279 280 283 287 289 288 287 288 288 289 290 291 290 290 290 292 293 292 291 290 291 291 293 294 294 294 295 295 295 294 294 294 294 295 296
299 299 300 300 301 301 301 303 299 299 296 295 294 297 300 304 303 305 303 296 287 283 285 287 285 282 279 280 274 281 289 289 286 284 284 287 287 289 286 285 283 284 287 285 280 278 279 283 283 281 280 278 275 275 279 284 288 289 288 288 289 289 290 291 289 288 290 292 293 292 292 292 292 290 291 293 294 294 294 294 295 294 293 293 294 295 295
299 299 300 300 300 301 298 301 297 296 293 293 295 301 303 304 305 303 302 297 294 282 279 278 280 280 278 277 277 283 289 288 285 283 283 283 284 285 281 280 281 285 284 282 282 277 280 286 284 280 275 275 273 274 278 282 286 287 287 288 288 289 291 290 290 289 289 290 291 292 292 291 291 291 292 293 294 294 294 294 293 294 293 293 293 295 295
299 299 299 300 299 300 294 292 297 297 294 296 299 302 304 303 302 301 297 295 296 294 288 279 281 281 282 279 278 280 285 281 282 281 280 282 280 280 279 278 280 282 277 277 277 279 283 285 279 275 275 279 280 281 282 282 284 286 288 289 291 291 292 292 292 292 290 290 290 290 291 291 292 293 293 293 293 293 293 293 293 293 292 292 293 294 294
298 298 294 293 293 290 289 289 293 297 299 299 301 296 295 291 285 286 287 287 286 295 282 285 279 281 282 283 281 285 286 280 281 283 281 279 280 280 279 281 281 282 278 276 277 284 277 280 280 279 279 281 281 283 283 283 286 286 288 290 291 292 294 293 293 292 290 288 287 287 288 290 291 292 292 292 293 293 292 293 293 294 294 294 294 294 294
295 291 289 289 290 286 287 291 296 299 297 296 293 289 287 283 284 284 284 284 284 285 282 283 283 282 282 282 283 286 287 284 278 278 280 282 281 279 279 279 279 278 274 274 280 285 279 275 275 276 276 278 281 284 283 282 282 285 286 287 289 292 294 294 295 294 293 291 291 291 291 289 288 288 290 292 292 292 292 292 293 293 293 293 294 294 294
288 286 283 283 283 286 292 294 297 295 294 291 284 284 285 283 283 283 282 281 282 278 281 282 284 283 286 287 283 283 287 283 280 279 278 279 284 280 278 276 277 277 273 272 278 279 278 276 272 273 275 276 281 281 282 285 286 285 285 286 287 288 290 293 293 292 292 291 292 291 291 292 292 291 290 291 292 291 291 292 292 293 293 293 293 294 294
287 286 284 282 286 288 291 293 294 290 287 286 284 281 280 282 282 282 281 277 276 278 282 283 281 282 283 282 283 280 284 286 282 280 276 278 281 279 274 275 278 276 272 273 275 273 270 271 270 274 277 277 280 283 283 285 286 287 286 287 287 287 289 290 292 292 291 291 290 290 291 291 291 291 291 292 293 292 292 292 292 292 292 292 292 292 293
288 289 290 292 292 293 292 291 286 287 285 284 281 278 278 280 281 280 278 279 277 275 282 285 283 283 283 285 284 282 282 285 281 277 278 278 281 277 275 274 274 273 272 275 276 269 270 273 268 271 277 279 279 281 284 286 285 286 287 287 287 288 290 291 291 290 292 292 291 292 292 291 289 290 290 291 291 291 292 291 291 291 292 292 292 293 293
296 296 294 290 289 286 286 285 285 284 282 279 276 277 277 277 277 278 277 276 276 283 283 286 286 286 286 286 285 284 283 285 286 281 278 280 279 275 273 272 273 272 276 274 271 268 270 268 267 274 278 279 279 281 283 285 284 285 286 286 288 290 291 290 291 291 291 292 292 293 293 291 290 288 289 290 290 289 289 291 291 291 291 292 292 292 293
293 293 291 285 285 283 283 281 286 285 281 278 276 275 276 276 276 274 276 276 277 281 282 284 283 284 282 282 284 280 281 285 282 276 278 276 276 273 273 274 275 275 276 271 270 273 271 267 274 279 278 279 281 282 283 284 285 287 287 288 288 289 291 291 292 292 292 293 293 293 292 291 289 289 290 289 290 290 288 288 289 291 291 292 291 291 292
285 284 282 281 280 282 282 277 282 281 278 280 279 275 274 274 273 271 280 279 281 284 283 283 284 284 283 283 282 282 281 281 281 279 278 277 275 274 274 275 272 270 271 271 266 267 270 273 278 279 280 280 283 284 283 284 286 289 289 288 288 289 291 291 290 291 291 293 293 293 291 290 291 290 290 289 289 290 290 289 289 291 291 291 291 291 291
283 281 278 277 276 279 279 276 277 279 280 281 280 279 277 276 275 279 280 281 282 283 285 284 283 284 282 281 283 283 277 277 279 278 276 274 273 275 275 275 273 271 269 265 267 268 269 274 277 280 282 283 284 284 283 284 286 288 291 289 289 289 291 291 291 290 290 291 292 292 291 291 291 291 291 292 291 290 290 290 291 291 291 291 290 290 290
282 282 279 278 276 276 280 278 278 281 284 283 282 279 281 283 281 282 283 283 283 285 284 284 284 285 283 280 282 280 276 275 278 277 277 278 276 276 276 276 273 268 268 267 265 263 269 276 277 279 280 282 284 284 285 286 287 289 289 289 290 291 292 292 292 291 291 292 291 291 291 291 291 291 291 292 293 292 290 290 290 291 292 291 291 291 291
279 279 280 276 274 276 278 277 281 281 282 282 282 281 283 282 280 283 285 284 284 284 285 284 282 280 283 281 281 279 278 276 278 278 277 277 276 271 268 268 266 266 268 271 267 271 275 277 279 279 281 284 285 285 286 287 287 288 289 290 291 292 292 292 292 292 292 292 292 291 291 291 291 291 291 291 291 291 291 291 290 290 291 291 291 291 291
281 278 278 275 276 277 276 277 280 280 281 282 282 283 283 283 282 283 286 284 284 285 286 284 279 280 280 280 277 280 280 279 276 276 277 274 273 270 269 268 266 268 269 272 275 277 278 280 279 281 283 284 284 286 287 288 288 288 289 290 290 291 293 292 292 292 292 292 292 291 291 291 291 291 291 291 290 290 291 291 291 291 291 291 291 291 291
281 278 280 278 277 275 278 278 279 278 279 281 282 282 282 281 282 284 285 285 286 284 282 283 282 282 280 280 277 274 276 275 276 277 273 273 269 269 268 268 265 271 271 273 275 278 279 278 281 282 283 284 284 286 287 287 287 289 289 289 290 291 292 292 291 291 292 292 291 291 291 291 292 291 291 291 290 289 289 290 291 291 291 291 292 291 291
280 280 278 278 279 275 279 274 275 275 278 279 280 282 283 282 282 284 285 285 285 281 279 279 277 277 278 274 273 275 277 277 277 275 273 273 271 270 271 271 270 272 276 279 279 279 280 282 283 284 284 284 285 286 287 288 288 288 288 289 288 289 289 290 290 290 290 291 291 288 291 291 292 291 291 291 290 289 288 289 291 291 290 290 292 292 292
278 276 277 277 279 280 279 278 279 279 279 279 281 283 284 283 284 285 286 284 281 281 278 276 278 277 273 275 275 277 279 275 273 273 274 273 272 271 270 270 275 279 279 280 282 281 281 283 285 286 286 286 286 286 287 287 287 287 287 287 287 287 287 287 287 288 289 290 291 291 291 291 291 291 291 291 291 290 289 288 289 289 290 291 291 293 293
Wind_Speed
19 20 20 19 20 20 20 20 20 17 14 5 6 2 2 4 1 3 4 3 1 3 3 2 1 1 2 4 4 2 3 2 2 4 3 3 5 3 5 5 2 5 4 1 1 4 1 4 3 2 3 3 5 5 11 10 11 8 3 4 4 3 0 3 2 4 4 4 2 2 7 11 4 5 4 6 5 6 8 5 6 6 2 1 1 0 3
20 19 20 19 20 19 19 20 20 18 13 5 4 2 2 1 1 2 2 1 1 3 1 2 3 3 3 1 6 3 4 3 2 4 3 3 3 3 2 3 3 3 1 1 1 2 2 2 5 0 1 2 6 7 8 13 7 10 6 6 3 2 2 5 1 1 1 5 4 4 1 3 3 5 4 8 4 4 2 5 2 4 7 7 6 3 3
19 20 20 19 20 20 19 19 19 18 15 8 3 2 1 1 1 1 3 3 4 1 1 0 1 3 5 5 7 5 3 5 8 6 5 6 7 3 5 5 3 3 2 1 1 0 2 1 3 4 4 2 1 6 9 7 7 5 7 7 6 4 3 3 2 5 6 7 9 7 6 9 2 0 5 5 9 7 4 4 1 4 1 4 4 2 3
20 20 20 20 20 21 21 20 19 18 18 12 2 1 2 2 1 4 3 3 3 2 1 1 2 4 4 4 4 3 2 2 6 10 11 10 8 9 8 9 6 4 0 2 2 2 0 2 3 3 1 1 0 4 10 7 5 6 13 8 7 2 1 3 5 5 5 6 5 4 3 3 4 3 10 6 6 9 6 6 5 7 4 4 5 6 6
19 19 19 20 20 21 21 20 19 18 16 11 2 2 1 0 2 0 1 3 0 2 0 3 3 3 4 4 3 2 2 5 7 7 4 5 9 3 8 3 1 2 2 1 1 1 1 1 8 4 3 1 1 4 10 8 9 10 9 10 6 3 2 4 5 1 2 2 4 2 2 6 5 7 8 6 8 7 8 8 7 5 11 4 2 5 11
19 20 19 20 20 19 19 18 17 19 19 11 1 1 1 2 1 0 2 0 1 2 3 1 5 6 4 3 2 4 5 5 4 3 9 8 4 3 0 2 2 1 2 2 2 3 2 3 2 1 1 1 3 3 2 5 8 10 4 6 5 5 5 2 3 1 0 2 2 1 2 1 4 7 9 7 7 6 9 6 4 8 6 7 6 9 10
19 19 20 19 19 19 19 20 18 18 20 8 1 1 1 1 1 1 1 1 1 3 4 6 6 7 6 3 3 4 5 8 5 4 5 2 1 5 1 1 1 2 3 2 2 1 2 3 2 2 1 1 1 2 2 1 3 5 4 4 1 5 3 3 2 2 4 6 6 3 6 2 4 4 2 5 12 10 8 4 5 7 3 5 11 13 5
18 19 19 19 19 19 19 20 19 18 20 5 2 2 1 3 3 2 0 2 5 6 4 4 4 7 6 4 5 3 2 4 7 3 2 3 3 2 3 2 2 2 4 3 3 1 3 2 2 0 1 1 1 1 2 1 1 3 5 5 2 4 2 5 4 2 2 5 6 6 2 2 7 2 2 2 5 5 2 5 3 5 6 2 7 10 4
18 19 19 19 19 18 18 19 19 17 16 4 4 1 3 3 2 3 3 3 3 2 3 4 4 4 2 4 4 3 4 5 7 5 2 0 1 3 1 2 1 2 4 3 2 1 1 1 2 2 2 3 1 2 2 1 6 5 4 3 1 3 1 1 3 4 1 2 5 3 5 5 7 4 3 4 7 7 3 5 5 5 6 6 9 4 4
18 18 18 18 18 18 18 17 16 14 12 3 3 3 4 3 2 2 3 3 3 3 4 4 2 3 2 3 5 5 6 7 6 2 3 1 0 1 1 1 1 3 8 6 5 3 1 4 5 4 5 4 5 0 3 2 7 7 5 1 5 3 5 4 5 7 3 1 3 3 4 4 4 1 1 1 3 2 2 3 2 2 13 12 7 11 5
18 18 18 18 18 17 17 17 16 13 7 7 6 4 5 5 6 4 1 2 2 1 3 1 2 3 6 7 8 8 5 7 4 2 2 4 4 4 2 1 1 2 2 2 3 3 4 5 5 1 2 4 4 3 8 10 5 1 8 4 1 5 8 2 2 6 4 1 4 2 2 3 4 1 0 1 1 3 5 3 4 4 3 4 2 4 10
19 18 17 17 17 17 16 16 15 15 7 1 1 4 3 4 6 3 1 3 4 2 3 3 3 4 5 10 7 4 5 7 5 0 3 2 5 4 2 2 3 3 1 1 2 7 4 2 1 1 1 2 6 2 15 12 8 3 0 7 5 8 6 4 1 5 2 2 4 1 1 4 1 3 5 5 3 2 1 1 2 2 1 1 1 7 15
19 19 17 17 16 16 16 16 15 14 12 3 3 5 3 4 4 4 4 2 3 5 6 6 7 7 7 7 6 4 5 6 4 3 2 2 3 3 1 0 1 1 2 4 4 4 3 2 3 1 2 3 4 9 14 12 8 8 4 1 11 7 9 4 5 3 3 4 2 2 3 4 3 4 1 2 2 1 3 2 0 3 3 4 4 3 6
19 18 17 16 16 16 15 15 14 14 15 9 4 5 4 4 3 3 2 2 4 2 2 7 6 6 9 8 5 7 4 5 4 0 2 1 2 4 3 1 1 2 2 2 4 3 2 4 1 4 5 6 5 6 6 2 2 8 6 5 2 12 4 7 3 1 4 4 4 6 3 3 1 3 2 4 4 5 3 3 5 5 4 6 7 7 7
20 20 18 17 16 15 15 15 14 14 15 11 3 4 4 4 3 3 4 3 3 6 2 3 5 8 9 7 4 6 3 5 6 4 2 0 0 2 2 2 3 4 2 1 2 4 2 1 1 3 2 4 3 2 4 2 5 3 3 3 3 6 11 3 8 1 4 6 2 1 1 3 6 8 3 1 1 2 2 3 1 2 4 6 10 11 9
21 19 19 18 17 16 15 15 14 14 14 12 3 4 6 3 3 4 5 4 3 5 1 1 5 5 7 5 5 4 5 4 5 3 5 4 1 5 2 2 2 1 3 4 2 2 1 0 0 2 1 2 1 3 3 3 2 2 4 3 8 8 7 9 10 5 4 3 5 4 4 7 7 6 3 2 0 2 1 2 3 4 10 8 12 12 11
20 21 20 19 17 16 15 15 14 13 14 12 5 4 5 0 0 2 3 2 2 4 7 8 4 3 3 4 4 4 4 3 6 4 4 5 4 3 6 4 1 3 1 2 5 1 2 4 2 2 1 0 3 5 1 3 0 2 4 5 9 8 4 5 7 5 3 6 5 5 4 1 0 3 1 3 3 1 1 1 5 6 12 13 14 16 16
20 20 20 19 18 16 16 14 14 15 14 12 5 4 5 2 2 1 3 3 2 4 3 1 3 3 2 1 3 3 1 2 3 2 2 3 2 3 3 3 3 2 1 1 1 4 3 2 1 1 2 1 0 2 5 4 2 2 1 0 1 4 3 3 9 8 4 6 0 3 4 4 2 2 3 4 2 3 4 6 3 3 8 13 15 17 17
21 20 19 19 19 17 16 15 14 15 15 14 6 3 2 3 2 2 4 3 2 4 5 3 2 5 2 1 4 3 2 2 4 3 5 4 1 3 3 3 0 1 5 3 3 2 1 0 0 1 2 0 0 2 0 3 3 1 2 2 3 2 3 2 4 7 7 5 5 5 3 5 5 1 5 5 5 2 7 7 1 2 9 4 6 9 11
19 19 20 19 19 18 16 15 15 15 15 15 7 2 7 5 3 2 5 4 3 6 10 8 3 5 3 3 3 4 4 3 1 1 0 1 3 7 2 2 3 1 1 2 2 1 1 1 0 1 1 1 0 1 2 1 1 2 1 1 3 5 3 3 4 2 5 3 3 2 2 1 6 10 3 0 3 5 4 2 2 3 6 11 6 9 8
19 19 20 20 19 18 18 16 16 16 15 14 8 3 5 2 2 2 1 3 4 7 7 1 1 5 2 7 8 7 5 7 4 1 2 4 3 2 2 0 1 1 0 1 2 0 2 0 1 0 0 2 1 1 3 1 1 1 1 1 1 1 2 1 2 5 6 2 4 4 4 3 3 5 7 5 6 1 3 4 1 1 5 8 8 6 9
20 19 20 20 19 19 19 18 18 17 16 14 8 1 4 3 2 2 2 1 4 6 7 4 1 9 11 11 11 10 11 12 11 5 3 4 2 2 2 2 2 1 1 2 2 1 1 1 1 1 1 0 1 1 0 3 2 1 0 1 1 0 0 4 3 3 3 5 5 1 2 4 2 1 1 2 4 2 4 3 3 6 4 3 7 8 7
20 21 20 20 20 20 20 20 19 18 16 14 8 2 6 7 5 1 2 4 4 5 5 7 7 8 8 10 14 13 12 12 10 5 6 3 4 2 4 2 3 2 0 1 0 2 1 4 1 3 2 1 5 2 1 1 2 1 2 1 1 1 1 1 4 1 2 2 3 2 2 2 3 2 2 3 2 2 2 5 5 1 4 6 10 8 10
20 21 21 21 21 21 21 21 20 18 17 14 9 4 5 4 5 4 3 2 1 7 5 0 2 3 1 5 1 4 4 6 11 12 6 8 2 4 2 4 2 1 0 2 2 1 2 2 1 2 1 1 2 1 3 0 1 3 2 1 2 0 1 1 1 0 2 2 2 2 1 2 2 2 2 0 1 1 1 4 4 6 6 6 7 12 12
21 21 22 22 22 21 21 21 21 19 17 16 11 5 5 4 2 3 1 2 4 2 3 8 4 9 3 4 8 5 7 8 4 6 7 10 10 4 4 1 1 1 5 3 1 4 2 2 1 1 2 1 2 1 1 2 1 2 2 2 1 1 1 2 1 1 2 1 3 3 2 2 2 2 1 1 3 3 2 0 1 4 5 9 10 11 12
21 21 21 21 22 22 21 21 20 19 18 17 12 5 3 5 2 2 1 3 3 2 2 4 8 4 2 7 3 3 2 4 7 8 11 13 13 11 5 6 6 2 2 2 1 3 3 3 3 1 3 1 1 1 1 1 1 1 2 2 1 1 1 1 3 2 1 2 2 2 2 1 3 2 1 1 1 0 2 3 4 6 9 8 6 9 13
21 21 21 22 22 22 22 22 21 20 19 17 9 5 6 5 5 6 4 3 1 1 1 4 6 8 6 10 6 3 3 1 3 6 6 8 9 7 6 5 7 5 2 0 3 4 3 2 3 1 1 0 2 1 1 1 1 2 2 2 1 1 1 1 3 3 2 5 4 3 2 2 1 1 1 1 1 1 3 3 5 6 9 9 10 5 4
20 20 21 21 22 22 21 21 20 20 19 17 9 6 5 7 5 7 6 5 1 0 2 5 6 11 11 6 4 3 6 2 3 4 5 6 6 5 5 6 4 4 1 1 0 3 3 4 1 1 0 0 2 2 2 1 3 3 2 0 0 0 1 4 4 6 1 5 6 5 2 0 1 2 0 0 0 1 5 5 6 4 5 8 11 11 9
22 22 22 21 21 21 21 21 20 18 19 16 7 6 4 4 4 5 7 5 1 1 3 5 5 4 2 6 9 8 1 4 1 2 3 1 2 2 3 3 4 3 3 5 4 3 3 1 0 2 1 1 2 1 2 2 2 1 2 1 1 3 2 2 3 3 1 1 3 4 2 2 3 2 2 1 1 2 4 2 3 5 6 4 7 12 14
22 22 22 22 22 21 21 20 19 17 16 6 4 2 2 2 1 4 5 5 4 2 1 4 5 4 3 3 5 3 4 4 2 3 5 3 3 2 1 2 3 2 3 2 2 3 0 2 2 1 2 2 2 1 3 1 1 3 3 2 3 3 3 5 3 1 0 0 2 1 3 4 3 4 3 2 2 2 4 3 4 7 5 5 6 5 7
23 23 23 22 22 21 21 21 18 15 11 3 2 1 2 1 0 2 6 4 5 2 1 1 5 5 6 2 1 5 6 5 3 3 2 1 1 2 1 2 2 3 3 4 4 1 1 4 1 2 2 3 2 2 4 3 0 3 1 3 4 4 3 1 2 2 5 6 6 5 5 4 1 4 6 4 3 3 4 3 3 4 8 9 5 7 8
24 24 24 24 22 22 21 19 17 12 5 4 3 2 0 1 0 3 6 5 3 2 1 3 3 4 3 6 3 2 2 2 1 2 2 3 2 3 4 6 2 2 3 3 1 2 2 1 0 1 2 3 4 3 3 3 4 2 3 6 4 3 0 3 5 5 5 5 9 8 5 3 4 2 2 1 4 3 7 5 6 7 9 9 8 8 7
25 26 26 25 25 23 20 18 15 10 5 7 11 14 12 12 5 6 6 4 1 2 1 1 0 1 1 5 6 4 1 1 3 5 1 2 1 3 2 4 2 3 2 5 4 2 1 1 0 2 1 1 2 1 2 1 2 2 3 2 3 2 3 3 5 4 2 2 1 3 5 3 1 1 4 4 5 5 7 8 6 8 9 11 11 11 10
26 26 27 26 25 22 19 18 12 4 1 1 1 1 5 3 8 9 5 1 1 0 1 1 1 2 5 5 2 2 2 2 1 2 1 3 0 2 1 2 3 3 5 3 1 1 1 3 3 2 3 3 2 2 1 1 2 2 2 2 1 3 4 5 5 4 4 4 4 4 8 6 5 4 6 7 7 5 5 6 9 10 8 9 9 9 10
27 28 27 26 24 20 17 8 3 1 1 2 1 1 2 4 6 10 10 2 1 1 1 0 1 1 4 5 2 4 1 1 1 1 1 2 3 2 1 3 4 5 2 3 4 2 1 1 1 1 0 3 2 1 2 3 1 0 1 2 1 4 4 5 4 3 3 3 8 7 6 7 8 6 5 6 6 6 7 6 6 12 9 7 8 8 8
28 29 27 26 24 12 1 2 1 2 1 0 1 4 11 12 3 7 4 1 0 0 1 1 1 1 2 1 2 2 1 1 0 1 0 1 2 2 3 2 3 0 0 3 1 2 1 2 1 1 2 2 1 2 1 5 3 2 1 2 2 1 1 3 5 5 5 5 8 7 8 7 8 6 5 5 6 5 6 8 6 7 11 9 7 7 6
27 27 27 19 6 2 0 1 1 3 1 3 11 14 11 1 6 5 3 3 1 0 1 1 1 4 5 3 1 6 3 2 3 2 4 4 0 2 3 2 1 2 2 3 4 3 1 2 3 1 1 0 1 3 3 3 3 4 4 3 1 2 6 7 7 10 10 8 8 6 6 7 6 5 6 6 5 5 7 8 9 10 10 10 8 7 7
27 21 5 3 1 0 1 1 0 4 11 12 6 1 0 1 1 1 1 0 3 1 1 1 3 3 0 1 3 2 1 2 2 1 0 1 1 1 0 2 0 1 1 1 2 1 1 5 3 1 5 4 3 4 5 4 5 4 3 1 3 3 7 8 8 10 10 8 5 5 5 5 6 4 7 6 6 6 4 4 4 4 5 6 7 8 8
14 4 3 3 1 1 1 0 6 16 9 2 0 0 1 0 1 0 1 1 1 1 2 3 5 2 3 2 6 3 1 1 2 2 1 1 1 1 1 1 2 2 1 2 0 1 1 2 2 3 4 4 4 2 2 3 3 3 3 1 0 5 7 7 7 11 10 9 11 10 11 9 7 4 4 5 5 5 4 5 6 6 6 6 7 6 7
5 8 4 4 1 2 5 6 11 9 1 1 1 1 1 0 1 1 0 0 1 1 1 2 3 3 6 6 3 2 0 1 2 1 1 1 0 1 1 1 1 1 1 1 2 3 1 2 2 3 5 3 5 3 2 4 4 3 2 1 0 2 4 4 3 2 2 1 4 5 2 5 9 9 7 7 7 7 5 5 5 6 6 6 7 8 7
4 2 3 1 4 4 6 9 7 0 1 0 1 1 1 1 1 0 0 0 0 2 1 1 1 1 0 1 1 2 2 2 1 2 3 2 1 2 2 1 1 0 1 1 2 2 3 2 3 1 4 2 4 3 2 2 3 1 1 1 1 2 5 4 3 3 4 5 4 4 4 4 5 7 7 7 7 8 7 7 7 6 7 8 9 7 6
4 4 5 5 7 7 7 2 0 0 1 0 1 1 0 1 0 1 1 1 1 1 1 0 2 1 2 1 2 1 1 0 1 1 1 1 1 1 1 1 2 1 0 1 1 2 2 0 2 5 6 6 6 3 2 4 2 4 2 2 3 4 4 5 4 1 4 6 4 5 5 5 4 4 5 6 6 7 8 7 7 6 7 5 6 7 7
12 7 2 2 2 1 1 1 1 1 1 0 2 1 1 0 1 1 1 1 1 0 2 0 2 1 2 1 2 1 2 0 1 1 2 1 1 2 2 1 1 1 0 1 1 1 1 1 2 7 6 5 3 3 4 3 3 3 3 3 2 3 5 4 5 5 3 5 5 5 6 6 5 4 4 5 6 5 3 5 8 7 6 7 7 7 6
2 2 2 0 1 1 0 1 0 1 1 0 1 1 0 1 1 1 0 0 0 0 1 3 4 5 3 2 0 2 2 1 3 2 1 0 1 1 1 1 1 2 0 1 2 0 2 3 8 7 3 2 2 4 4 3 4 4 3 1 1 3 5 4 5 6 4 5 7 5 5 5 6 5 5 3 5 8 6 5 4 7 7 7 7 6 5
1 1 0 0 0 1 1 2 1 1 2 2 2 1 2 1 2 1 0 2 0 2 4 0 1 0 4 4 1 0 1 1 1 2 0 0 1 0 1 1 1 2 2 1 2 2 2 3 7 5 5 4 4 5 4 3 4 6 6 4 3 4 5 6 5 5 4 5 7 7 6 5 6 5 5 5 3 5 9 8 7 7 7 7 7 6 4
2 0 1 2 1 1 0 0 1 0 1 2 1 4 2 3 3 1 3 1 2 5 7 6 2 1 3 3 1 1 1 1 0 0 0 1 1 0 0 0 1 2 1 2 1 1 5 7 7 7 5 5 6 5 4 4 3 4 8 6 4 4 4 6 5 5 5 4 4 6 7 6 7 7 6 5 6 4 5 6 8 9 7 8 7 7 5
0 0 0 1 1 1 0 1 1 1 0 0 1 3 0 2 3 1 2 0 3 4 6 4 4 2 1 2 0 1 2 1 1 1 0 0 0 0 1 1 1 0 0 1 2 5 6 8 7 7 3 4 5 5 4 4 4 5 5 5 5 6 6 6 7 6 4 5 6 6 6 6 6 6 6 6 5 5 6 7 7 9 10 9 8 7 7
0 1 0 1 2 0 1 1 1 1 1 1 2 2 2 1 3 6 6 3 5 3 4 4 2 1 0 1 2 0 0 1 1 0 0 1 0 2 2 2 1 1 1 1 4 6 6 6 5 4 3 4 6 8 5 5 4 5 5 6 6 7 6 7 6 6 6 8 7 7 6 7 7 7 7 7 6 6 7 7 7 5 7 7 8 8 8
1 0 0 1 0 0 1 3 4 2 4 5 4 4 6 7 4 5 6 4 5 6 4 1 1 1 1 0 1 0 0 1 1 1 1 2 1 1 0 1 0 2 4 7 6 5 6 5 3 1 3 5 4 6 5 5 6 6 6 7 7 7 7 7 7 7 6 5 6 8 7 6 6 6 6 7 7 6 4 6 7 5 7 9 8 8 9
0 1 1 1 2 1 3 1 1 1 3 6 5 5 6 4 6 5 4 8 8 6 3 1 0 0 1 0 1 2 1 0 1 0 2 0 1 1 1 1 3 3 3 3 4 7 7 4 1 3 4 4 5 5 5 4 5 5 4 5 5 6 6 7 7 6 6 5 5 5 6 6 7 7 8 8 6 6 5 5 6 6 6 7 8 8 8
0 0 1 1 1 2 2 2 1 3 5 4 3 4 6 5 3 6 5 4 7 5 6 3 1 1 1 1 1 0 1 0 2 1 2 1 1 2 1 2 4 6 8 7 6 6 4 3 5 5 4 4 4 4 5 5 5 5 5 5 4 4 4 5 7 7 6 6 6 6 6 5 5 5 5 7 8 7 5 3 5 6 7 6 7 8 8
1 1 0 2 0 0 2 1 0 1 2 1 1 2 2 3 4 5 5 4 3 7 2 2 1 1 1 1 0 1 1 2 1 0 1 2 3 2 3 6 6 6 7 7 7 4 2 4 5 5 7 8 7 5 4 4 5 4 5 5 5 6 5 5 5 5 6 5 6 6 4 4 5 5 7 8 8 7 7 5 3 4 6 6 5 6 8
Wind_Direction
355 354 353 353 351 353 352 355 4 4 357 15 344 313 357 31 37 268 284 305 97 55 53 302 28 342 248 321 279 291 299 255 278 305 276 282 221 247 223 237 208 236 216 221 144 140 119 158 175 207 130 212 207 204 165 150 152 139 181 130 217 140 100 111 289 297 298 321 316 75 163 155 139 201 115 131 194 184 170 162 185 139 168 62 345 76 257
355 354 354 352 352 351 352 356 3 6 8 347 332 24 49 14 32 334 299 9 93 67 98 334 312 303 312 276 278 237 245 217 276 243 255 226 311 275 292 306 207 305 211 229 169 175 104 224 148 99 237 181 221 146 173 158 162 155 218 160 215 120 287 119 79 64 352 358 22 35 71 170 163 179 203 190 143 76 148 106 77 126 209 163 123 214 272
355 354 354 354 352 351 353 356 359 358 356 346 359 24 308 352 283 248 298 355 60 114 185 324 298 319 314 307 283 286 240 224 224 234 247 218 242 280 248 219 350 300 299 318 2 71 148 139 233 131 172 219 78 169 159 190 153 166 179 167 159 153 191 124 130 153 158 174 178 192 179 201 215 158 158 174 150 132 109 160 122 176 228 130 144 218 257
353 354 355 354 352 350 353 357 357 356 357 354 41 324 5 22 64 309 332 359 28 54 304 35 313 314 308 284 266 268 278 266 239 225 257 226 224 224 275 303 271 250 325 21 24 2 359 144 187 134 181 294 327 168 170 176 170 184 160 150 132 163 157 135 150 152 179 201 212 251 128 81 161 201 162 194 172 165 138 116 123 184 187 179 227 166 152
352 355 354 354 353 351 353 355 354 352 355 354 351 325 112 240 91 266 334 330 12 297 246 300 318 297 350 302 342 297 257 289 295 197 250 212 195 226 213 236 345 265 84 50 26 343 330 353 134 169 145 257 237 317 174 180 186 170 160 151 100 96 154 202 151 161 189 200 219 234 251 176 189 144 188 168 157 153 129 146 205 162 109 220 273 189 145
352 354 356 354 354 351 350 353 352 351 351 352 15 18 334 58 262 331 237 118 279 358 296 222 255 257 266 271 293 269 290 287 279 244 231 263 188 190 320 213 243 240 128 128 80 327 54 44 96 25 357 100 352 52 11 177 206 174 155 172 131 140 171 249 114 11 245 337 330 254 107 141 158 165 161 170 173 171 155 195 169 145 151 195 213 178 182
354 355 356 356 356 356 354 356 359 356 345 351 88 39 302 166 219 219 271 348 241 219 279 276 252 263 223 259 246 271 260 275 255 241 314 291 171 192 152 38 17 81 56 95 140 15 85 17 352 100 34 111 77 88 36 253 334 177 130 185 147 118 198 179 132 129 11 5 2 342 129 129 65 34 168 170 161 187 174 149 180 163 175 199 161 180 185
352 355 356 356 357 360 2 0 1 1 349 349 56 78 6 11 336 324 304 280 284 287 295 287 288 275 255 246 228 235 232 306 342 335 251 324 327 41 92 29 12 37 83 75 83 86 108 124 83 306 102 5 88 166 179 148 24 143 159 167 287 126 249 151 124 63 9 360 12 27 39 186 101 20 36 99 128 83 95 113 111 86 53 54 133 153 185
353 352 355 356 358 360 4 4 8 7 358 29 18 347 43 308 282 286 299 291 244 255 268 267 278 287 242 218 295 270 298 333 354 292 255 132 360 5 317 295 349 348 68 93 91 100 111 174 216 232 178 96 202 136 267 133 148 147 145 167 151 107 179 38 96 93 321 13 22 345 27 72 92 74 51 106 139 134 171 142 203 130 143 119 113 119 227
357 353 352 356 358 359 1 3 9 14 7 31 328 350 343 308 239 254 302 292 351 327 301 269 271 297 271 282 326 341 315 312 338 333 297 324 275 352 284 287 96 357 40 16 355 347 340 252 245 218 219 227 288 307 123 141 153 157 152 5 132 143 130 133 120 124 233 313 18 4 1 43 58 20 325 251 326 50 93 34 90 212 143 128 141 212 192
356 357 354 353 355 357 358 0 5 15 20 20 2 328 341 354 328 326 352 327 306 314 307 279 307 341 318 337 330 322 303 320 340 41 293 7 325 358 37 83 94 102 66 358 326 294 274 263 258 218 141 162 172 180 103 70 70 140 146 103 60 133 123 140 136 128 225 331 324 305 51 120 219 249 192 164 202 169 142 183 206 196 152 184 203 229 134
352 353 354 353 353 353 356 357 360 6 23 132 318 303 283 317 306 272 340 356 297 283 356 310 318 313 318 319 324 311 311 316 302 211 255 283 282 316 20 47 92 40 256 228 328 302 285 244 236 220 136 189 217 78 59 52 21 63 187 133 149 142 121 127 165 110 155 2 350 2 269 231 247 269 239 219 197 152 128 47 241 162 23 346 106 156 157
352 349 349 350 352 354 352 353 357 357 359 17 20 321 309 317 281 302 307 305 291 328 338 322 313 297 295 314 319 288 280 274 277 266 223 239 303 339 329 355 99 253 333 359 34 31 44 310 308 263 300 350 357 32 36 23 15 11 25 164 133 156 123 170 57 82 58 67 70 147 239 245 287 295 308 196 159 206 116 61 209 199 205 159 135 168 152
350 350 347 348 351 351 352 352 350 352 351 352 347 309 303 319 321 312 316 337 294 250 262 295 293 315 332 327 308 310 318 333 323 45 330 212 248 292 300 282 230 302 344 73 60 78 41 31 22 21 340 11 9 17 342 341 19 39 5 339 165 139 112 113 69 351 146 154 157 227 304 330 356 344 221 177 163 182 150 163 246 203 179 149 140 146 143
346 350 349 348 350 350 351 350 349 346 346 346 327 301 297 291 255 288 291 284 289 294 242 261 336 313 322 317 333 334 349 331 359 329 272 296 320 237 232 289 349 7 0 34 12 38 134 105 39 67 344 53 99 262 334 360 304 57 52 18 43 162 145 187 115 314 112 123 79 4 343 260 273 230 274 229 203 146 179 98 300 256 214 168 145 157 150
343 347 349 348 349 348 348 348 345 343 343 345 320 294 294 264 244 253 288 299 309 308 289 254 316 307 327 310 325 348 349 334 343 318 344 341 306 334 313 298 331 51 35 70 72 87 46 50 233 78 146 146 157 74 297 344 353 324 41 42 81 32 87 137 143 141 75 94 147 199 177 244 211 220 220 234 75 110 159 62 285 247 171 180 155 155 160
341 344 347 346 348 347 343 343 343 343 343 347 333 323 296 291 336 320 314 295 241 248 290 303 282 278 292 317 352 11 358 358 347 9 343 332 320 303 298 335 7 55 79 75 8 56 41 45 66 116 359 142 119 163 39 345 284 360 324 23 58 67 42 72 67 118 170 146 150 215 199 189 336 222 239 211 109 121 67 77 277 229 180 173 165 162 162
339 341 346 346 346 345 342 342 343 343 340 340 346 319 282 276 244 284 266 268 300 280 260 250 15 335 302 290 285 279 313 315 343 316 250 267 314 336 321 355 357 349 63 76 17 64 56 90 112 151 143 263 112 100 167 209 159 198 152 7 44 49 25 55 159 150 156 131 333 341 304 266 259 216 201 123 142 73 88 183 227 289 178 177 175 171 166
337 338 344 346 345 344 342 341 344 341 340 340 343 302 264 240 266 240 259 267 282 278 246 223 244 248 254 279 247 269 269 264 287 306 311 354 348 280 257 266 293 327 6 123 62 89 102 326 65 124 119 301 52 183 152 138 210 17 134 84 67 25 94 353 79 120 158 187 131 206 236 241 173 255 148 169 106 128 194 232 218 186 160 180 169 165 171
335 339 340 343 343 344 340 339 338 338 337 340 352 290 279 302 260 281 356 328 302 281 287 270 186 216 204 209 281 293 314 314 227 235 146 282 288 341 35 23 327 85 354 63 50 211 96 179 235 134 37 185 287 181 57 296 295 160 207 209 135 197 121 183 152 139 53 41 73 43 202 227 139 126 71 207 162 227 208 283 292 214 173 156 160 163 165
336 336 338 338 340 341 342 338 337 334 335 337 349 326 319 297 4 37 29 303 307 312 301 310 179 229 231 255 238 239 230 239 228 213 241 239 293 36 56 185 284 39 238 149 154 241 157 139 246 176 222 138 269 342 191 175 12 237 223 207 142 248 97 175 252 193 138 119 149 196 221 201 208 157 175 210 197 203 191 139 60 52 150 152 142 155 158
335 336 334 335 336 336 335 333 331 332 333 332 339 78 272 240 238 304 297 243 243 216 244 260 300 281 260 254 257 237 235 240 244 207 238 291 306 214 280 294 281 194 219 119 46 34 30 159 77 84 172 151 10 102 144 94 193 282 322 117 115 352 134 182 168 217 127 189 210 244 257 240 265 128 217 244 253 237 190 156 182 150 166 143 139 148 137
335 333 333 332 331 329 329 327 328 329 329 331 328 194 283 300 290 259 277 277 250 260 269 280 283 272 273 246 229 229 224 227 244 222 196 179 300 293 232 223 279 236 268 142 157 163 194 134 185 160 91 200 154 129 31 114 196 258 131 309 146 323 184 168 92 243 244 236 206 269 313 333 331 291 231 240 298 308 204 169 143 212 164 162 149 140 132
329 329 329 327 325 325 325 326 326 326 325 324 322 267 282 256 279 322 287 244 327 306 307 284 7 351 315 322 38 167 193 228 226 228 183 176 194 300 312 242 257 345 305 251 177 158 189 118 190 136 113 221 87 83 135 331 263 185 81 4 329 276 168 68 99 222 135 270 348 22 271 294 308 317 319 263 272 270 245 192 178 155 139 118 136 140 142
326 326 327 326 325 323 323 322 322 321 320 320 314 276 262 274 248 230 273 347 338 52 302 309 276 236 267 264 287 260 213 211 202 195 173 194 202 190 219 221 187 347 291 296 79 62 48 120 149 98 109 240 118 255 232 114 257 155 86 261 22 2 133 66 347 80 139 240 292 274 264 244 269 285 302 343 340 356 8 134 151 132 124 136 145 135 138
325 324 324 322 321 321 320 320 319 318 317 316 316 287 253 255 190 171 250 294 259 272 305 309 283 301 281 326 302 242 237 209 206 187 191 199 208 222 265 334 322 38 343 57 93 132 127 60 83 118 113 240 94 137 187 195 168 56 131 207 197 233 25 206 170 108 316 308 294 300 312 327 355 344 3 282 278 10 70 96 112 123 123 123 134 152 154
323 323 322 322 321 321 319 319 318 317 316 315 310 272 256 250 192 196 197 197 235 318 45 267 281 295 347 317 279 325 302 2 145 173 186 205 216 235 254 275 294 331 19 29 44 124 76 99 97 76 117 178 109 126 142 69 93 104 89 291 350 82 143 174 81 68 306 218 227 179 121 245 239 281 274 290 305 159 108 99 110 126 131 138 128 100 108
320 320 321 319 319 318 318 316 315 316 314 314 305 277 244 248 218 198 203 219 176 194 248 273 298 297 307 277 252 299 310 11 116 157 184 203 210 224 221 241 249 254 292 105 59 24 30 68 56 220 154 324 54 29 43 89 78 41 35 300 225 182 214 147 162 156 229 245 205 176 143 150 237 221 24 267 320 154 129 140 137 139 141 143 131 124 115
324 324 324 322 319 317 316 315 315 315 315 317 301 286 237 215 208 194 200 185 210 287 256 260 282 319 5 302 320 333 343 107 133 175 157 161 173 193 204 215 197 182 113 79 91 95 88 109 185 73 40 236 95 88 38 24 48 159 244 255 284 233 175 174 189 174 253 251 182 158 153 178 161 124 77 33 359 130 108 105 121 128 136 138 140 142 134
322 320 320 319 317 315 313 312 313 314 316 327 327 2 20 35 162 197 181 174 177 274 13 347 334 261 302 319 300 298 310 339 39 67 64 88 88 94 43 79 42 59 90 105 127 84 230 104 355 289 317 352 123 151 83 181 130 251 261 294 293 283 246 236 193 171 281 22 110 87 93 89 94 114 81 65 51 108 110 101 135 121 93 92 113 107 135
320 319 317 316 314 312 311 310 311 312 318 323 13 37 44 356 346 231 178 175 191 248 173 171 243 297 323 256 269 295 332 334 355 39 59 76 83 20 323 96 48 59 49 356 47 152 113 31 12 331 331 33 95 96 160 132 221 311 284 333 318 320 303 233 189 197 128 104 92 87 84 76 81 69 39 29 47 91 100 69 54 88 116 106 99 118 109
322 319 317 315 312 310 308 305 303 299 273 214 196 182 177 161 241 164 175 174 170 275 329 332 325 357 316 310 297 273 325 326 28 7 23 17 11 19 18 52 85 4 108 101 161 57 51 192 145 325 33 334 68 97 84 90 130 232 320 346 334 327 76 119 102 92 98 118 107 78 61 71 34 120 181 107 69 70 94 92 85 84 84 88 86 71 91
321 319 316 313 312 310 307 303 297 288 240 245 265 289 275 248 165 153 171 135 210 239 162 61 354 289 300 266 318 321 319 350 9 22 22 348 5 3 33 10 17 40 34 83 5 77 206 119 77 52 335 22 79 94 84 118 208 265 302 306 328 20 76 82 99 93 85 349 29 153 190 184 91 68 106 89 76 85 100 98 97 96 97 98 99 100 100
319 316 313 311 309 308 308 302 304 283 185 284 47 74 339 137 141 154 160 128 138 233 63 98 360 344 274 315 22 282 13 82 310 23 19 331 305 62 326 21 0 78 346 75 273 64 351 62 44 281 333 17 35 75 46 255 265 329 354 24 52 79 85 73 52 40 15 36 43 78 108 128 121 100 80 80 78 64 77 96 107 97 94 103 105 114 121
318 315 311 310 308 307 307 296 138 143 183 237 258 213 136 92 184 171 171 159 102 340 27 340 117 343 341 345 42 276 303 73 359 339 92 319 23 44 333 55 326 63 318 82 49 82 23 357 181 60 291 306 45 41 236 235 253 45 55 56 50 98 89 72 25 24 57 72 87 87 96 103 94 83 88 89 92 98 93 83 102 112 101 95 112 116 124
317 314 312 308 305 305 294 91 91 106 57 17 130 333 323 329 227 163 148 50 62 151 63 266 61 227 157 272 304 285 317 78 311 326 262 280 355 38 90 105 55 9 282 68 118 354 61 314 25 305 296 58 228 186 226 194 163 134 181 157 209 141 122 150 131 81 61 63 83 88 82 75 88 96 90 88 90 89 100 100 77 96 113 115 114 114 110
317 315 311 304 294 129 6 188 346 80 127 263 289 301 301 348 82 83 36 332 292 117 207 198 336 244 171 223 263 274 42 323 335 11 339 29 284 299 35 41 79 312 39 9 22 29 296 33 103 65 341 146 253 226 218 197 190 171 171 191 184 144 104 103 118 105 82 67 73 81 94 99 95 95 102 104 104 110 114 123 133 132 132 130 128 124 130
317 315 328 8 34 29 332 332 77 313 316 298 271 256 333 33 65 359 36 112 269 124 319 77 249 250 355 99 253 250 67 283 58 74 320 235 65 333 4 88 245 20 38 266 260 169 56 38 45 69 273 259 251 257 246 212 220 222 252 251 148 129 132 132 127 104 99 90 77 92 91 107 121 138 132 133 133 126 110 99 87 91 106 117 125 127 119
317 318 28 13 78 202 200 268 334 325 310 241 358 145 259 10 80 356 241 242 23 263 267 147 245 187 141 212 278 289 118 68 2 25 92 278 113 316 17 70 313 70 341 29 331 70 343 347 13 10 292 297 344 266 216 191 236 239 214 223 273 146 142 151 152 140 151 167 174 178 158 156 157 156 123 106 81 72 91 100 102 107 115 111 113 115 118
1 17 3 340 337 268 297 299 325 318 244 156 327 107 239 333 117 272 22 81 291 268 106 247 220 179 192 197 224 306 54 49 1 321 164 317 306 106 262 89 271 87 4 72 283 35 86 311 313 21 304 258 243 257 206 179 181 227 239 220 172 144 133 140 131 68 76 41 158 159 140 148 148 144 148 137 131 121 108 98 103 112 115 116 118 127 130
20 339 336 316 287 317 307 318 320 58 57 45 345 8 61 306 285 189 75 20 209 241 204 196 343 349 324 52 120 249 289 95 126 126 116 81 252 88 48 57 252 79 353 327 284 63 72 72 360 171 244 227 226 239 180 159 168 131 144 102 133 140 119 108 102 96 93 103 114 114 105 120 142 146 147 148 143 138 137 134 131 126 121 124 125 122 118
276 269 255 276 287 284 299 308 80 34 5 65 136 269 229 237 319 355 142 158 261 282 321 198 341 315 286 191 219 178 313 149 127 112 100 62 305 118 176 314 3 93 118 235 112 55 74 318 306 291 260 254 252 271 203 175 195 127 141 145 156 139 121 120 109 96 138 144 145 127 119 121 132 136 143 140 138 135 131 126 126 127 126 117 115 120 125
307 299 240 274 308 295 252 344 283 106 166 284 49 320 350 45 233 195 277 276 302 73 278 222 263 253 291 26 315 211 202 245 299 331 64 17 313 54 77 22 39 32 186 342 70 55 36 240 239 252 253 263 248 212 211 190 158 143 161 168 171 167 136 137 130 133 136 133 135 134 136 130 123 116 106 109 110 98 98 128 135 127 127 129 133 131 130
239 224 249 244 305 281 95 206 268 64 327 54 117 202 267 336 307 24 14 286 281 4 336 35 322 57 324 305 119 307 354 343 56 77 56 322 78 351 46 9 291 257 259 37 39 26 246 228 221 236 240 275 259 211 203 178 142 128 111 108 81 111 110 107 108 105 92 88 91 92 96 109 110 105 104 112 132 133 123 105 109 125 125 124 125 128 125
63 343 10 7 14 274 85 261 337 121 204 237 148 188 156 170 246 178 57 266 84 335 311 296 237 16 279 275 19 294 111 239 305 94 257 31 54 30 91 300 257 29 59 296 337 323 346 289 269 271 251 230 211 200 197 182 163 149 145 121 118 126 121 117 116 113 117 125 130 126 123 124 117 119 123 127 134 140 136 139 138 129 131 126 124 121 131
52 107 45 81 330 301 126 211 15 316 287 151 221 201 163 254 164 95 255 188 321 332 347 317 300 195 266 266 125 276 340 72 38 223 142 64 99 329 246 249 76 57 17 44 36 251 228 242 270 269 237 199 178 181 179 182 157 123 121 141 167 142 131 129 130 123 130 121 123 125 134 135 135 137 139 142 138 138 131 137 142 136 135 131 139 141 144
78 349 99 105 105 273 75 162 235 175 351 328 281 186 309 325 200 219 272 302 317 282 279 263 241 207 295 312 325 336 26 44 95 289 75 50 111 258 12 84 302 65 114 300 259 259 270 260 247 254 231 169 158 162 169 159 153 148 146 140 141 138 137 129 129 129 135 124 121 122 130 135 137 134 131 129 135 140 146 146 150 145 146 151 149 140 138
35 261 75 128 232 190 145 248 274 299 7 24 312 268 272 252 53 4 333 301 265 308 322 349 10 348 355 299 89 159 282 344 98 304 124 161 23 42 13 35 321 258 187 187 237 225 238 253 257 267 200 179 160 156 161 154 163 149 141 139 142 140 141 134 132 136 144 140 138 136 135 137 141 145 147 145 136 144 153 154 156 147 133 131 139 141 138
158 87 79 203 202 152 237 269 10 28 341 340 315 10 21 32 18 337 317 317 338 329 301 242 221 117 275 256 78 348 306 345 79 262 11 30 70 222 150 237 335 333 265 184 228 231 230 248 259 218 160 149 163 157 160 162 156 151 146 147 155 156 150 147 149 151 146 141 144 145 149 150 138 132 130 133 140 152 153 148 144 143 146 146 145 145 142
61 340 13 45 355 315 264 278 33 338 332 359 19 3 345 21 4 331 332 347 331 332 350 16 348 87 251 107 326 19 260 286 139 40 63 61 189 167 73 317 229 198 263 235 225 247 251 253 186 151 160 158 158 157 154 165 152 150 151 148 146 148 150 144 138 141 143 143 143 145 144 141 141 144 152 157 150 133 132 142 144 143 152 152 147 147 147
327 105 238 183 170 235 9 7 325 309 340 359 358 356 1 335 348 326 339 336 327 7 42 45 304 32 328 30 65 49 251 196 73 112 156 200 188 107 168 214 243 213 233 242 229 251 248 210 173 160 158 167 167 167 159 155 154 152 148 142 137 120 114 128 133 127 125 132 137 138 152 161 156 138 126 119 119 115 113 121 145 148 150 158 156 148 144
28 45 299 305 354 177 197 210 86 210 224 248 307 280 331 317 332 310 311 348 13 60 351 298 52 1 47 114 214 241 302 40 38 22 6 276 158 141 212 201 230 234 231 268 286 280 224 201 194 181 173 169 171 166 152 139 134 134 136 137 132 126 126 129 133 133 133 139 151 151 135 117 117 119 120 118 117 118 126 138 149 147 149 154 159 154 149